This is the latest recevied weather packets stored in our database for station/object KE7JVX-3. If no packets are shown the sender has not sent any weather packets the latest 10 day(s).
| Time | Temp. | Humidity | Pressure | Rain* | Wind** | Luminosity | Snow |
|---|---|---|---|---|---|---|---|
| 1777681042 | 10.56° C | 20% | 1009.7 hPa | 0 mm | - | - | - |
| 1777680442 | 11.11° C | 20% | 1009.9 hPa | 0 mm | - | - | - |
| 1777679842 | 11.11° C | 20% | 1009.8 hPa | 0 mm | - | - | - |
| 1777679241 | 11.11° C | 21% | 1009.7 hPa | 0 mm | - | - | - |
| 1777678642 | 11.11° C | 19% | 1009.9 hPa | 0 mm | - | - | - |
| 1777678042 | 11.67° C | 19% | 1009.8 hPa | 0 mm | - | - | - |
| 1777677442 | 11.11° C | 21% | 1009.8 hPa | 0 mm | - | - | - |
| 1777676242 | 11.11° C | 23% | 1009.8 hPa | 0 mm | - | - | - |
| 1777675642 | 11.11° C | 22% | 1009.8 hPa | 0 mm | - | - | - |
| 1777675042 | 10.56° C | 24% | 1009.9 hPa | 0 mm | - | - | - |
| 1777674445 | 11.11° C | 24% | 1009.9 hPa | 0 mm | - | - | - |
| 1777673842 | 11.11° C | 24% | 1009.9 hPa | 0 mm | - | - | - |
| 1777672642 | 11.11° C | 26% | 1009.9 hPa | 0 mm | - | - | - |
| 1777672047 | 11.11° C | 24% | 1010.1 hPa | 0 mm | - | - | - |
| 1777671444 | 11.11° C | 27% | 1010.1 hPa | 0 mm | - | - | - |
| 1777670843 | 11.11° C | 26% | 1010.1 hPa | 0 mm | - | - | - |
| 1777670242 | 10.56° C | 29% | 1010.3 hPa | 0 mm | - | - | - |
| 1777669644 | 11.11° C | 27% | 1010.3 hPa | 0 mm | - | - | - |
| 1777666948 | 11.11° C | 30% | 1010.5 hPa | 0 mm | - | - | - |
| 1777666348 | 11.11° C | 32% | 1010.4 hPa | 0 mm | - | - | - |
| 1777665748 | 10.56° C | 31% | 1010.4 hPa | 0 mm | - | - | - |
| 1777665148 | 11.11° C | 33% | 1010.4 hPa | 0 mm | - | - | - |
| 1777664548 | 11.11° C | 32% | 1010.5 hPa | 0 mm | - | - | - |
| 1777663952 | 11.67° C | 31% | 1010.5 hPa | 0 mm | - | - | - |
| 1777663348 | 11.11° C | 31% | 1010.7 hPa | 0 mm | - | - | - |
* Rain latest hour (hover to see other rain measurements)
** Current wind speed in m/s (hover to see current wind gust speed)